Find Starlink 4166

NORAD ID: 53291 Int'l Des: 2022-086 Owner: SPXS Country: US Constellation: starlink operational
LEOCIRCULAR

Aktuelle Ansicht

3D-Globus wird geladen...

Über Starlink 4166

Beschreibung wird geladen...

Nächste Überflüge

Passes for default location (London). Set your location on the main map for personalized predictions.

Höhenverlauf

Loading altitude history...

Zweizeiliger Elementsatz

1 53291U 22086BB 26149.47418282 .00000686 00000-0 61170-4 0 9995
2 53291 53.1998 176.2511 0001214 81.1280 278.9850 15.08844098213459
Epoch: 29. Mai 2026 • Age: 18 hours

Aktueller Status

Höhe 540.1 km
Geschwindigkeit 7.59 km/s
Subsatellitenpunkt 3.44°N, 145.48°W
Startdatum 24. Juli 2022
Alter 3.8 years
Typ internet

Technische Details

Klassifizierung Payload
Masse 297.00 kg
Trockenmasse 275.00 kg
Gesamtmasse 297.00 kg
Länge 0.20 m
Durchmesser 2.80 m
Spannweite 9.00 m
Form Box + pan
Hersteller SPXS
Bus-Typ Starlink
Phasenstatus In Orbit
Besitzer/Staat SPXS/US

Most Searched